ASA67 PAKT-PASI

Flight info

Callsign ASA67
Flight time N/A
Altitude 28000
Route UDENE3 FLIPS
Aircraft B38M/M-SDE1FGHILORVWXY/HB1

Departure

Time 2026-04-30 02:27
Airport Ketchikan International Airport (PAKT)

Arrival

Time N/A
Airport Sitka Rocky Gutierrez Airport (PASI)
Time Latitude Longitude Altitude Speed Heading
2026-04-30 01:40 55.35655 -131.71045 53 ft 0 kts 46°
2026-04-30 02:21 55.35647 -131.71059 57 ft 3 kts 47°
2026-04-30 02:21 55.35630 -131.71091 62 ft 3 kts 47°
2026-04-30 02:21 55.35616 -131.71117 62 ft 2 kts 44°
2026-04-30 02:21 55.35599 -131.71138 62 ft 3 kts
2026-04-30 02:22 55.35584 -131.71125 62 ft 3 kts 316°
2026-04-30 02:22 55.35566 -131.71096 62 ft 3 kts 316°
2026-04-30 02:22 55.35562 -131.71090 62 ft 3 kts 316°
2026-04-30 02:22 55.35559 -131.71086 59 ft 0 kts 315°
2026-04-30 02:25 55.35568 -131.71101 62 ft 7 kts 316°
2026-04-30 02:25 55.35646 -131.71232 58 ft 24 kts 317°
2026-04-30 02:25 55.35792 -131.71478 61 ft 31 kts 315°
2026-04-30 02:25 55.35943 -131.71750 67 ft 30 kts 313°
2026-04-30 02:26 55.36088 -131.72005 88 ft 28 kts 311°
2026-04-30 02:26 55.36183 -131.72217 92 ft 16 kts 282°
2026-04-30 02:26 55.36128 -131.72329 98 ft 12 kts 183°
2026-04-30 02:26 55.36087 -131.72298 96 ft 0 kts 135°
2026-04-30 02:27 55.35971 -131.72101 99 ft 59 kts 136°
2026-04-30 02:27 55.35510 -131.71318 96 ft 124 kts 137°
2026-04-30 02:27 55.34785 -131.70109 359 ft 151 kts 136°
2026-04-30 02:27 55.34246 -131.69165 706 ft 163 kts 135°
2026-04-30 02:28 55.33944 -131.68631 1044 ft 153 kts 135°
2026-04-30 02:28 55.33198 -131.67290 1793 ft 160 kts 136°
2026-04-30 02:28 55.32352 -131.65836 2310 ft 181 kts 136°
2026-04-30 02:28 55.31387 -131.64192 2764 ft 209 kts 137°
2026-04-30 02:29 55.30208 -131.62372 3166 ft 239 kts 146°
2026-04-30 02:29 55.28733 -131.61082 4232 ft 236 kts 163°
2026-04-30 02:29 55.27107 -131.60720 5263 ft 237 kts 184°
2026-04-30 02:29 55.25512 -131.61344 6211 ft 240 kts 201°
2026-04-30 02:30 55.24034 -131.62769 7143 ft 245 kts 217°
2026-04-30 02:30 55.22827 -131.64928 8048 ft 250 kts 234°
2026-04-30 02:30 55.22046 -131.67666 8983 ft 256 kts 250°
2026-04-30 02:30 55.21729 -131.70740 9898 ft 259 kts 266°
2026-04-30 02:31 55.21976 -131.73892 10815 ft 265 kts 285°
2026-04-30 02:31 55.22791 -131.76842 11658 ft 277 kts 298°
2026-04-30 02:31 55.23862 -131.79789 12190 ft 297 kts 298°
2026-04-30 02:31 55.25005 -131.82955 12666 ft 318 kts 298°
2026-04-30 02:32 55.26225 -131.86347 13102 ft 339 kts 298°
2026-04-30 02:32 55.27610 -131.89868 13485 ft 361 kts 303°
2026-04-30 02:32 55.29158 -131.93445 14000 ft 375 kts 303°
2026-04-30 02:32 55.30739 -131.97145 14745 ft 380 kts 302°
2026-04-30 02:33 55.32306 -132.00843 15568 ft 384 kts 302°
2026-04-30 02:33 55.33906 -132.04638 16314 ft 390 kts 302°
2026-04-30 02:33 55.35528 -132.08496 17052 ft 395 kts 301°
2026-04-30 02:33 55.37169 -132.12406 17775 ft 399 kts 301°
2026-04-30 02:34 55.38825 -132.16356 18488 ft 404 kts 301°
2026-04-30 02:34 55.40497 -132.20354 19177 ft 407 kts 301°
2026-04-30 02:34 55.42184 -132.24392 19849 ft 411 kts 301°
2026-04-30 02:34 55.43886 -132.28474 20498 ft 415 kts 301°
2026-04-30 02:35 55.45603 -132.32598 21131 ft 419 kts 301°
2026-04-30 02:35 55.47336 -132.36770 21763 ft 422 kts 301°
2026-04-30 02:35 55.49076 -132.40964 22369 ft 426 kts 301°
2026-04-30 02:35 55.50831 -132.45204 22971 ft 429 kts 301°
2026-04-30 02:36 55.52602 -132.49486 23521 ft 433 kts 301°
2026-04-30 02:36 55.54383 -132.53802 24061 ft 436 kts 300°
2026-04-30 02:36 55.56152 -132.58094 24577 ft 440 kts 300°
2026-04-30 02:36 55.57973 -132.62523 25144 ft 442 kts 300°
2026-04-30 02:37 55.59761 -132.66878 25681 ft 444 kts 300°
2026-04-30 02:37 55.61577 -132.71311 26214 ft 446 kts 300°
2026-04-30 02:37 55.63403 -132.75774 26687 ft 449 kts 300°
2026-04-30 02:37 55.65240 -132.80273 27170 ft 451 kts 300°
2026-04-30 02:38 55.67086 -132.84799 27653 ft 454 kts 300°
2026-04-30 02:38 55.68948 -132.89326 28050 ft 458 kts 302°
2026-04-30 02:38 55.71006 -132.93700 28197 ft 461 kts 304°
2026-04-30 02:39 55.75149 -133.02565 28260 ft 472 kts 304°
2026-04-30 02:39 55.79312 -133.11589 28275 ft 472 kts 303°
2026-04-30 02:40 55.83353 -133.20385 27896 ft 444 kts 303°
2026-04-30 02:40 55.85351 -133.24474 27171 ft 441 kts 310°
2026-04-30 02:40 55.87765 -133.27922 26376 ft 447 kts 323°
2026-04-30 02:40 55.90584 -133.30143 26035 ft 440 kts 339°
2026-04-30 02:41 55.93602 -133.31088 25099 ft 447 kts 354°
2026-04-30 02:41 55.96726 -133.30792 23953 ft 457 kts 13°
2026-04-30 02:41 55.99653 -133.28644 22974 ft 456 kts 26°
2026-04-30 02:41 56.02534 -133.26135 21744 ft 463 kts 27°
2026-04-30 02:42 56.05133 -133.22881 20928 ft 453 kts 47°
2026-04-30 02:42 56.07042 -133.18528 20318 ft 436 kts 62°
2026-04-30 02:42 56.08249 -133.13759 19724 ft 408 kts 78°
2026-04-30 02:42 56.08658 -133.08834 18400 ft 396 kts 97°
2026-04-30 02:43 56.08181 -133.04107 17163 ft 379 kts 116°
2026-04-30 02:43 56.06967 -133.00107 15995 ft 365 kts 129°
2026-04-30 02:43 56.05721 -132.96169 14770 ft 362 kts 124°
2026-04-30 02:43 56.04205 -132.92684 13540 ft 352 kts 137°
2026-04-30 02:44 56.02713 -132.89236 12327 ft 353 kts 125°
2026-04-30 02:44 56.01516 -132.85384 10882 ft 356 kts 122°
2026-04-30 02:44 56.00305 -132.81505 9445 ft 358 kts 122°
2026-04-30 02:44 55.98920 -132.77933 8502 ft 341 kts 135°
2026-04-30 02:45 55.97110 -132.75315 7736 ft 334 kts 146°
2026-04-30 02:45 55.95402 -132.72526 6985 ft 331 kts 136°
2026-04-30 02:45 55.93792 -132.69669 6492 ft 319 kts 137°
2026-04-30 02:45 55.92239 -132.66942 6226 ft 304 kts 137°
2026-04-30 02:46 55.90778 -132.64412 6193 ft 281 kts 138°
2026-04-30 02:46 55.89414 -132.62086 6180 ft 262 kts 138°
2026-04-30 02:46 55.88230 -132.60079 6166 ft 245 kts 138°